Regional Weather Roundup
Issued by NWS

Home | Current Version | Previous Version | Graphics & Text | Print | Product List | Glossary On
Versions: 1 2 3 4 5 6 7 8 9 10 11 12 13 14 15 16 17 18 19 20 21 22 23 24 25 26 27 28 29 30 31 32 33 34 35 36 37 38 39 40 41 42 43 44 45 46 47 48 49 50
000
ASUS44 KMEG 180910
RWRTN
TENNESSEE HOURLY STATE WEATHER ROUNDUP
NATIONAL WEATHER SERVICE MEMPHIS TN
400 AM CDT FRI APR 18 2014

TNZ002-004-019-021-049-052-054-088>092-181000-
WEST TENNESSEE

CITY           SKY/WX    TMP DP  RH WIND       PRES   REMARKS
MEMPHIS INTL   MOCLDY    58  45  62 CALM      30.20R
NWS MEMPHIS      N/A     53 N/A N/A MISG        N/A
JACKSON        CLOUDY    53  44  71 CALM      30.22S
DYERSBURG      CLOUDY    54  41  62 N3        30.25R
UNION CITY     CLOUDY    48  46  93 N3        30.23R
PARIS          PTCLDY    44  39  82 SE3       30.24S
LEXINGTON      CLEAR     54  45  71 CALM      30.23S
$$

TNZ008-025-027-028-033-062-065-066-181000-
NORTH MIDDLE TENNESSEE

CITY           SKY/WX    TMP DP  RH WIND       PRES   REMARKS
NASHVILLE      CLOUDY    54  44  69 CALM      30.26F
DICKSON        CLOUDY    55  43  62 S6        30.24F
PORTLAND       CLOUDY    54  41  62 S6        30.26F
CLARKSVILLE    PTCLDY    50  39  66 E3        30.25F
SMYRNA         CLOUDY    51  46  83 CALM      30.27F
MURFREESBORO   CLOUDY    56  42  59 CALM      30.26F
COOKEVILLE     PTCLDY    50  45  81 CALM      30.27F
LIVINGSTON     CLOUDY    52  38  58 CALM      30.28F
GALLATIN       CLOUDY    50  45  83 W3        30.28F
CROSSVILLE     CLOUDY    50  38  63 CALM      30.29F
$$

TNZ061-075-076-078-094-096-097-181000-
SOUTH MIDDLE TENNESSEE

CITY           SKY/WX    TMP DP  RH WIND       PRES   REMARKS
LEWISBURG      CLOUDY    50  47  89 CALM      30.26S
FAYETTEVILLE   CLOUDY    54  40  59 SE7       30.26S
TULLAHOMA      CLEAR     55  37  50 SE3       30.27S
WINCHESTER     MOCLDY    55  37  50 SE7       30.27R
MCMINNVILLE    CLEAR     52  43  71 CALM      30.27S
COLUMBIA       CLEAR     55  50  82 CALM      30.24S
SHELBYVILLE    CLOUDY    54  43  66 E5        30.27F
$$

TNZ017-018-042-046-047-181000-
NORTHEAST TENNESSEE

CITY           SKY/WX    TMP DP  RH WIND       PRES   REMARKS
TRI CITIES     CLOUDY    42  27  55 CALM      30.33F
ELIZABETHTON   SUNNY     46  25  42 CALM      30.33F
$$

TNZ012-013-036-069-073-074-181000-
CENTRAL EAST TENNESSEE

CITY           SKY/WX    TMP DP  RH WIND       PRES   REMARKS
KNOXVILLE      CLOUDY    50  41  71 N7        30.29S
OAK RIDGE      CLOUDY    47  40  76 CALM      30.31F
$$

TNZ083-085-099-181000-
SOUTHEAST TENNESSEE

CITY           SKY/WX    TMP DP  RH WIND       PRES   REMARKS
CHATTANOOGA    CLOUDY    56  35  45 CALM      30.29R
$$

SKY/WX REPORTED AS FAIR MEANS FEW OR NO CLOUDS BELOW
12 THOUSAND FEET.




USA.gov is the U.S. government's official web portal to all federal, state and local government web resources and services.